sat.trackr.live / text

‹ back to catalog

AGGIESAT6 (AGS6)

NORAD 68634 · 2026-074H

PAYLOAD ACTIVE UNKNOWN

§ Identity

Operator
Country
US
Launch date
2026-04-07
Launch site
AFWTR
Launch vehicle
Mass (kg)
RCS (m²)

External: N2YO · Heavens-Above · Gunter

§ Orbital elements

Epoch: 2026-09-20T00:37:43.920192Z

Period
94.25 min
Inclination
60.0195°
Eccentricity
0.0035157
Mean motion
15.27863106 rev/d
Perigee alt
458.1 km
Apogee alt
506.3 km
Semi-major
6,860.3 km
B*
2.7165e-4
RAAN
172.0715°
Arg perigee
97.9112°
Mean anomaly
262.5963°
Rev number
2,528

§ Raw data

AGGIESAT6 (AGS6)1 68634U 26074H   26263.02620278  .00007286  00000+0  27165-3 0  99982 68634  60.0195 172.0715 0035157  97.9112 262.5963 15.27863106 25282

JSON: /api/v1/satellites/68634 · /tle

For live sub-satellite position, see the globe view (requires WebGL).

§ Visibility from observer

Set your observer location to see the next 7 days of passes ≥ 10°. The values pass through the URL so the page stays shareable.

No JS? Fill the form by hand. The geolocation button needs JavaScript.